Find Starlink 11504

NORAD ID: 62274 Int'l Des: 2024-237 Owner: SPXS Country: US Constellation: starlink operational
LEOCIRCULAR

現在のビュー

3D地球を読み込み中...

About Starlink 11504

Starlink 11504 (NORAD 62274) is a starlink constellation satellite (v2 mini d2c) launched Dec 8, 2024 by SPXS of US. It operates in LEO, CIRCULAR orbit with a mass of 960.00 kg.

Starlink 11504について

説明を読み込み中...

次回通過

Passes for default location (London). Set your location on the main map for personalized predictions.

高度履歴

Loading altitude history...

軌道要素

1 62274U 24237H 26175.59523656 .00153638 00000-0 11778-2 0 9993
2 62274 42.9983 132.4072 0000739 263.4399 96.6384 15.70861247 89815
Epoch: Jun 24, 2026 • Age: 28 hours

現在のステータス

高度 355.8 km
速度 7.70 km/s
衛星直下点 27.13°N, 24.2°W
打ち上げ日 Dec 8, 2024
運用期間 1.5 years
タイプ internet

技術仕様

分類 Payload
質量 960.00 kg
乾燥質量 910.00 kg
総質量 960.00 kg
長さ 0.30 m
直径 4.10 m
スパン 29.00 m
形状 Box + pan
製造者 SPXS
バスタイプ Starlink V2MD
フェーズステータス In Orbit
所有者/国 SPXS/US

Most Searched